STARLINK-31863, 59789

Orbit data source: Space-Track

STARLINK-31863, 59789 is a payload satellite owned by SpaceX/Seattle (US) in LEO that was launched on Sat, 18 May 2024 UTC via an FALCON 9 launch vehicle from the Air Force Eastern Test Range (AFETR). Payloads include a variety of satellites, spacecraft, and rockets equipped with specific instruments for various scientific and technological missions. These include communications satellites like Starlink; space stations such as the ISS; scientific satellites like the Hubble; Earth observation satellites from companies like Planet Labs, Umbra, and HawkEye 360; GPS; miniature CubeSats for education and research; and military/defense satellites.

Loading next visibility...
STARLINK-31863 details
Identifier
59789, 2024-093H
Orbit
LEO
Last TLE update20 hours ago
Origin
Flag of USSpaceX/Seattle (US)
ManufacturerSpaceX/Seattle
MissionOperational spacecraft
Bus & MotorSTARLINK V2M, Unknown motor
Mass730 kg wet, ~700 kg dry
Launch date (UTC)
2024-05-18 (8 months ago)
Launch vehicle
FALCON 9
Launch site
Air Force Eastern Test Range (AFETR)
Object type
Payload
Rocket body
Debris
Shape & HBRUnknown
Radar Cross SectionLarge (>1 m²)

Expand to show TLE details & history

TLE from 20 hours ago
0 STARLINK-31863
1 59789U 24093H   25014.48685021 -.00000013  00000-0  69772-5 0  9993
2 59789  43.0065  61.5436 0002844 294.5152  65.5408 15.40705670 38520
Epoch: 2025-01-14T11:41Z
Definitive object data (Epoch: 2025-01-14T11:41:03.858Z)
Latitude-0°
Longitude132.08468°
Altitude442.997 km
Speed7.649 km/s
True Right ascension04h 06m 10s
True Declination0° 00' 00"
Sunlit
Object was in full shadow at TLE epoch
Visualization TLE readout
Latitude-26.56907°
Longitude-20.40723°
Altitude450.377 km
Speed7.643 km/s
Apparent Right ascension18h 50m 15s
Apparent Declination-33° 46' 26"
Sunlit
Object is in daylight
Visualization observer readout
Local Sidereal Time07:58:02
Azimuth70.913° E
Elevation-75.145°
Doppler factor1
Orbital elements
Apogee altitude447.921 km
Perigee altitude444.04 km
Semi-major axis6,824.118 km
Eccentricity0.0002844
Inclination43.0065°
RAAN61.5436°
Arg. of periapsis294.5152°
True anomaly65.57047°
Mean anomaly65.5408°
Eccentric anomaly65.55563°
Mean motion3.85011 °/min
BSTAR0.0000069772
Orbital period93.5 mins
Loading maneuver chart data...
Loading historical data...
Loading historical data...
Loading historical data...
Loading historical data...
Loading historical data...
Loading historical data...
Loading historical data...

STARLINK-31863 Visibility forecast

Observer location: undefined°, undefined

Span
Click to sort rows by Start time (UTC) header in descending order
Start Az.
Max El. time (UTC)
Max El. Az.
Max El.
End time (UTC)
End Az.
6 mins2025-01-15 08:12:30.957Z272.933° WNW2025-01-15 08:15:30.957Z359.277° N39.822°2025-01-15 08:18:30.957Z69.542° E
5 mins2025-01-15 09:51:30.957Z295.063° NW2025-01-15 09:53:30.957Z349.429° N39.127°2025-01-15 09:56:30.957Z85.612° E
5 mins2025-01-15 11:29:30.957Z276.365° WNW2025-01-15 11:31:30.957Z227.387° WSW37.019°2025-01-15 11:34:30.957Z132.512° SE
4 mins2025-01-16 05:55:30.957Z203.628° SW2025-01-16 05:56:30.957Z174.751° S31.018°2025-01-16 05:59:30.957Z87.059° E
|